This demonstration page uses our WeatherBlox Daily Observations layout. Learn more.

Left ArrowRight Arrow

Hourly Observations for April 30, 2021

Temp ( °F °C ) Dew Point ( °F °C ) Humidity (%) Winds ( mph kmh ) Pressure ( in mb ) Visibility ( mi km ) Precip ( " mm )
12:59 am 00:59 Mostly Cloudy 78 25.6 58 14.4 50 50 SW 12 19 29.64 1004 10 16 0.00 0.00
1:59 am 01:59 Mostly Cloudy 77 25 57 13.9 50 50 SW 13 20 29.63 1004 10 16 0.00 0.00
2:59 am 02:59 Mostly Cloudy 77 25 58 14.4 52 52 WSW 14 22 29.63 1004 10 16 0.00 0.00
3:59 am 03:59 Cloudy with Light Rain 74 23.3 59 15 60 60 W 17 28 29.66 1004 7 11 0.00 0.00
4:59 am 04:59 Cloudy 72 22.2 60 15.6 66 66 WSW 9 15 29.67 1005 10 16 0.00 0.00
5:59 am 05:59 Cloudy 71 21.7 61 16.1 71 71 W 10 17 29.68 1005 10 16 0.00 0.00
6:59 am 06:59 Mostly Cloudy 70 21.1 60 15.6 71 71 WNW 14 22 29.71 1006 10 16 0.00 0.00
7:59 am 07:59 Partly Cloudy 72 22.2 55 12.8 55 55 WNW 17 28 29.74 1007 10 16 0.00 0.00
8:59 am 08:59 Partly Cloudy 72 22.2 51 10.6 48 48 NW 23 37 29.76 1008 10 16 0.00 0.00
9:59 am 09:59 Mostly Sunny 73 22.8 47 8.3 40 40 NW 23 37 29.77 1008 10 16 0.00 0.00
10:59 am 10:59 Mostly Sunny 74 23.3 44 6.7 34 34 WNW 25 41 29.78 1008 10 16 0.00 0.00
11:59 am 11:59 Mostly Sunny 73 22.8 40 4.4 30 30 NW 25 41 29.76 1008 10 16 0.00 0.00
12:59 pm 12:59 Partly Cloudy 74 23.3 42 5.6 32 32 NW 21 33 29.75 1008 10 16 0.00 0.00
1:59 pm 13:59 Partly Cloudy 76 24.4 45 7.2 33 33 WNW 17 28 29.75 1007 10 16 0.00 0.00
2:59 pm 14:59 Partly Cloudy 76 24.4 43 6.1 31 31 W 20 31 29.72 1007 10 16 0.00 0.00
3:59 pm 15:59 Partly Cloudy 77 25 45 7.2 32 32 W 17 28 29.70 1006 10 16 0.00 0.00
4:59 pm 16:59 Mostly Cloudy 77 25 43 6.1 30 30 W 18 30 29.69 1006 10 16 0.00 0.00
5:59 pm 17:59 Partly Cloudy 77 25 41 5 28 28 WNW 25 41 29.70 1006 10 16 0.00 0.00
6:59 pm 18:59 Partly Cloudy 75 23.9 40 4.4 28 28 NW 17 28 29.71 1006 10 16 0.00 0.00
7:59 pm 19:59 Partly Cloudy 73 22.8 34 1.1 24 24 NW 15 24 29.75 1008 10 16 0.00 0.00
8:59 pm 20:59 Partly Cloudy 65 18.3 42 5.6 43 43 N 24 39 29.81 1010 10 16 0.00 0.00
9:10 pm 21:10 Partly Cloudy 62 16.7 43 6.1 50 50 N 28 44 29.83 1010 10 16 0.00 0.00
9:59 pm 21:59 Partly Cloudy 61 16.1 44 6.7 54 54 NNW 26 43 29.88 1012 10 16 0.00 0.00
10:59 pm 22:59 Partly Cloudy 60 15.6 40 4.4 47 47 NNW 21 33 29.91 1013 10 16 0.00 0.00
11:59 pm 23:59 Mostly Cloudy 59 15 36 2.2 42 42 NW 25 41 29.92 1013 10 16 0.00 0.00

Powered by AerisWeather